Home   Weather   Nuussuaq   Past weeks
Flag for Greenland

Past Weather in Nuussuaq, Greenland — Yesterday and Last 2 Weeks

Now
47 °F

Cool.


Feels Like: 39 °F
Forecast: 49 / 46 °F
Wind: 24 mph from Southeast

Location: Edderfugle Oeer

Current Time: Jul 17, 2019 at 4:56:59 pm

Latest Report: Jul 17, 2019 at 3:00 pm


Visibility: N/A

Pressure: 29.75 "Hg

Humidity: 89%

Dew Point: 44 °F

Location of NuussuaqLocation

Past Weather in Nuussuaq — Graph

°F

Nuussuaq Temperature Yesterday

Maximum temperature yesterday: 52 °F (at 6:00 pm)
Minimum temperature yesterday: 45 °F (at 2:00 am)
Average temperature yesterday: 48 °F

High & Low Weather Summary for the Past Weeks

 TemperatureHumidityPressure
High52 °F (Jul 16, 6:00 pm)100% (Jul 2, 3:00 pm)30.26 "Hg (Jul 2, 3:00 pm)
Low34 °F (Jul 4, 10:00 am)47% (Jul 16, 12:00 pm)29.66 "Hg (Jul 17, 8:00 am)
Average43 °F88%30.01 "Hg
* Reported Jul 2 3:00 pm — Jul 17 3:00 pm, Nuussuaq. Weather by CustomWeather, © 2019

Note: Actual official high and low records may vary slightly from our data, if they occured in-between our weather recording intervals... More about our weather records

Advertising

Nuussuaq Weather History for the Previous 24 Hours

Scroll right to see more
 ConditionsComfort  
Time TempWeatherWind HumidityBarometerVisibility
3:00 pm
Wed, Jul 17
47 °FCool.24 mph89%29.75 "HgN/A
2:00 pm49 °FCool.23 mph75%29.72 "HgN/A
1:00 pm47 °FCool.13 mph87%29.72 "HgN/A
12:00 pm49 °FCool.7 mph86%29.70 "HgN/A
11:00 am51 °FCool.3 mph50%29.68 "HgN/A
10:00 am48 °FCool.5 mph69%29.67 "HgN/A
9:00 am47 °FCool.5 mph73%29.67 "HgN/A
8:00 am47 °FCool.6 mph77%29.66 "HgN/A
7:00 am47 °FCool.5 mph84%29.67 "HgN/A
6:00 am46 °FCool.7 mph95%29.67 "HgN/A
5:00 am49 °FCool.1 mph75%29.68 "HgN/A
4:00 am49 °FCool.2 mph63%29.70 "HgN/A
3:00 am47 °FCool.5 mph85%29.70 "HgN/A
2:00 am46 °FCool.6 mph82%29.71 "HgN/A
1:00 am47 °FCool.5 mph87%29.73 "HgN/A
12:00 am49 °FCool.6 mph64%29.74 "HgN/A
11:00 pm
Tue, Jul 16
48 °FCool.6 mph91%29.76 "HgN/A
10:00 pm49 °FCool.3 mph84%29.77 "HgN/A
9:00 pm51 °FCool.2 mph74%29.78 "HgN/A
8:00 pm51 °FCool.6 mph68%29.78 "HgN/A
7:00 pm52 °FCool.7 mph59%29.79 "HgN/A
6:00 pm52 °FCool.6 mph60%29.80 "HgN/A
5:00 pm50 °FCool.6 mph62%29.81 "HgN/A
4:00 pm49 °FCool.6 mph67%29.83 "HgN/A
Weather by CustomWeather, © 2019

See weather overview